Location: Saint Louis
(38.6272°N, 90.1978°W)
Time: 18:48:33
(UTC-05:00)

ISS - Pass Details

Date: 20 July 2013
Orbit: 402 x 404 km, 51.6° (Epoch: 31 May)

Event Time Altitude Azimuth Distance (km) Brightness Sun altitude
Exits shadow 02:36:32 12° 82° (E) 1,455 -0.2 -27.2°
Drops below altitude 10° 02:36:51 10° 79° (ENE) 1,555 0.0 -27.1°
Enters shadow 03:33:50 -68° 233° (SW) 12,238 4.1 -21.5°
Maximum altitude 04:10:47 40° 327° (NNW) 662 -2.2 -16.8°
